Location: Bruderhein
(53.8035°N, 112.9265°W)
Time: 21:29:15
(UTC+00:00)

RS-15 - Visible Passes

Search period start: 31 March 2023 00:00
Search period end: 10 April 2023 00:00
Orbit: 1884 x 2161 km, 64.8° (Epoch: 30 March)

Date Brightness Start Highest point End Pass type
(mag) Time Alt. Az. Time Alt. Az. Time Alt. Az.
31 Mar 8.8 03:30:44 10° WNW 03:42:40 50° N 03:54:10 10° ENE visible
31 Mar 8.3 05:45:18 10° NW 05:57:30 66° NNE 06:04:24 29° ESE visible
31 Mar 8.0 07:58:24 10° NW 08:10:07 61° WSW 08:12:07 55° SSW visible
31 Mar 9.1 10:12:39 10° NW 10:19:48 19° W 10:19:50 19° W visible
01 Apr 8.9 02:54:05 10° W 03:06:03 51° N 03:17:38 10° ENE visible
01 Apr 8.4 05:08:58 10° NW 05:21:05 60° NNE 05:29:22 22° E visible
01 Apr 7.9 07:22:15 10° NW 07:34:14 73° SW 07:37:05 56° S visible
01 Apr 8.9 09:35:49 10° NW 09:44:30 25° W 09:44:49 25° WSW visible
02 Apr 8.6 04:32:34 10° WNW 04:44:36 56° NNE 04:54:21 16° E visible
02 Apr 7.9 06:46:05 10° NW 06:58:14 84° SW 07:02:05 51° SSE visible
02 Apr 8.6 08:59:18 10° NW 09:09:06 32° WSW 09:09:49 32° WSW visible
03 Apr 8.7 03:56:05 10° WNW 04:08:03 53° NNE 04:19:23 10° E visible
03 Apr 8.0 06:09:55 10° NW 06:22:08 85° NE 06:27:07 43° SE visible
03 Apr 8.4 08:22:58 10° NW 08:33:34 40° WSW 08:34:51 39° WSW visible
04 Apr 8.8 03:19:32 10° WNW 03:31:28 51° N 03:42:54 10° E visible
04 Apr 8.1 05:33:41 10° NW 05:45:56 75° NE 05:52:10 34° ESE visible
04 Apr 8.2 07:46:43 10° NW 07:57:56 49° WSW 07:59:54 46° SW visible
04 Apr 9.4 10:02:38 10° WNW 10:06:57 13° W 10:07:39 13° W visible
05 Apr 8.8 02:42:55 10° WNW 02:54:51 50° N 03:06:19 10° ENE visible
05 Apr 8.3 04:57:26 10° NW 05:09:38 67° NNE 05:17:15 26° ESE visible
05 Apr 8.1 07:10:31 10° NW 07:22:10 60° WSW 07:24:59 50° SSW visible
05 Apr 9.2 09:24:54 10° WNW 09:31:47 18° W 09:32:44 18° W visible
06 Apr 8.4 04:21:07 10° NW 04:33:14 61° NNE 04:42:22 19° ESE visible
06 Apr 8.0 06:34:22 10° NW 06:46:18 71° SW 06:50:06 48° S visible
06 Apr 9.0 08:48:01 10° NW 08:56:30 24° W 08:57:51 23° WSW visible
07 Apr 8.6 03:44:43 10° WNW 03:56:46 56° NNE 04:07:30 12° E visible
07 Apr 8.0 05:58:12 10° NW 06:10:20 83° SW 06:15:14 43° SSE visible
07 Apr 8.7 08:11:27 10° NW 08:21:05 31° WSW 08:22:59 29° WSW visible
08 Apr 8.7 03:08:16 10° WNW 03:20:14 53° NNE 03:31:40 10° E visible
08 Apr 8.0 05:22:02 10° NW 05:34:15 86° NE 05:40:23 35° SE visible
08 Apr 8.5 07:35:06 10° NW 07:45:35 39° WSW 07:48:08 35° SW visible
09 Apr 8.1 04:45:49 10° NW 04:58:04 77° NE 05:05:34 27° ESE visible
09 Apr 8.3 06:58:50 10° NW 07:09:58 48° WSW 07:13:18 39° SSW visible
09 Apr 9.5 09:15:10 10° WNW 09:18:53 12° W 09:21:03 11° W visible
